Weather History for La Junta, CO

Change the Weather History Date:

Sunday, September 1, 2013

  Actual Average Record
Temperature  
Mean Temperature 76 °F 73 °F  
Max Temperature 86 °F 88 °F 101 °F (1948)
Min Temperature 65 °F 58 °F 47 °F (1965)
Degree Days  
Heating Degree Days 0 0  
Month to date heating degree days 0 0  
Since 1 July heating degree days 0 4  
Cooling Degree Days 11 8  
Month to date cooling degree days 11 8  
Year to date cooling degree days 1412 1086  
Growing Degree Days 25 (Base 50)    
Moisture  
Dew Point 59 °F    
Average Humidity 64    
Maximum Humidity 87    
Minimum Humidity 40    
Precipitation  
Precipitation T in 0.04 in 0.76 in (2006)
Month to date precipitation T 0.04  
Year to date precipitation 4.01 9.12  
Sea Level Pressure  
Sea Level Pressure 29.97 in    
Wind  
Wind Speed 9 mph (ENE)    
Max Wind Speed 21 mph    
Max Gust Speed 29 mph    
Visibility 10 miles    
Events      
T = Trace of Precipitation, MM = Missing Value Source: NWS Daily Summary

Daily Weather History Graph

Daily Weather History Graph

Search for Another Location

Airport:

Trip Planner

Search our weather history database for the weather conditions in past years. The results will help you decide how hot, cold, wet, or windy it might be!

Date:

Astronomy

Sep. 01, 2013 Rise Set
Actual Time 6:24 AM MDT 7:23 PM MDT
Civil Twilight 5:57 AM MDT 7:49 PM MDT
Nautical Twilight 5:25 AM MDT 8:21 PM MDT
Astronomical Twilight 4:51 AM MDT 8:55 PM MDT
Moon 2:50 AM MDT (9/1) 5:00 PM MDT (9/1)
Length of Visible Light 13h 52m
Length of Day
12h 59m
Waning Crescent, 13% of the Moon is Illuminated
Sep 1
Waning Crescent
Sep 5
New
Sep 12
First Quarter
Sep 19
Full
Sep 26
Last Quarter

Hourly Weather History & Observations

Time (MDT) Temp. Heat Index Dew Point Humidity Pressure Visibility Wind Dir Wind Speed Gust Speed Precip Events Conditions
12:53 AM 70.0 °F - 62.1 °F 76% 29.93 in 10.0 mi NW 5.8 mph - N/A   Partly Cloudy
1:53 AM 69.1 °F - 64.0 °F 84% 29.92 in 10.0 mi Calm Calm - 0.00 in   Mostly Cloudy
2:53 AM 68.0 °F - 64.0 °F 87% 29.90 in 10.0 mi West 5.8 mph - N/A   Clear
3:53 AM 68.0 °F - 62.1 °F 81% 29.89 in 10.0 mi NW 4.6 mph - N/A   Clear
4:53 AM 68.0 °F - 61.0 °F 78% 29.87 in 10.0 mi WNW 8.1 mph - N/A   Clear
5:53 AM 66.0 °F - 61.0 °F 84% 29.89 in 10.0 mi West 5.8 mph - N/A   Clear
6:53 AM 66.0 °F - 61.0 °F 84% 29.94 in 10.0 mi Calm Calm - N/A   Clear
7:53 AM 69.1 °F - 61.0 °F 75% 29.96 in 10.0 mi WNW 3.5 mph - N/A   Clear
8:53 AM 72.0 °F - 59.0 °F 64% 29.99 in 10.0 mi North 8.1 mph - N/A   Clear
9:53 AM 73.0 °F - 60.1 °F 64% 30.02 in 10.0 mi NE 8.1 mph - N/A   Clear
10:53 AM 75.0 °F - 61.0 °F 62% 30.04 in 10.0 mi East 8.1 mph - N/A   Clear
11:53 AM 75.9 °F - 61.0 °F 60% 30.02 in 10.0 mi ENE 9.2 mph - N/A   Mostly Cloudy
12:53 PM 79.0 °F - 62.1 °F 56% 30.00 in 10.0 mi East 11.5 mph - 0.00 in   Mostly Cloudy
1:53 PM 82.9 °F 82.8 °F 59.0 °F 44% 29.99 in 10.0 mi East 11.5 mph 16.1 mph N/A   Scattered Clouds
2:53 PM 82.9 °F 82.6 °F 57.9 °F 42% 29.97 in 10.0 mi East 10.4 mph 19.6 mph N/A   Partly Cloudy
3:53 PM 84.0 °F 83.3 °F 57.0 °F 40% 29.96 in 10.0 mi East 9.2 mph 19.6 mph N/A   Clear
4:53 PM 84.9 °F 83.9 °F 57.0 °F 38% 29.93 in 10.0 mi East 17.3 mph 24.2 mph N/A   Clear
5:53 PM 82.9 °F 82.1 °F 55.9 °F 39% 29.95 in 10.0 mi East 13.8 mph - N/A   Clear
6:53 PM 81.0 °F 81.0 °F 57.0 °F 44% 29.96 in 10.0 mi East 11.5 mph - N/A   Clear
7:53 PM 78.1 °F - 55.9 °F 46% 29.98 in 10.0 mi East 11.5 mph - N/A   Mostly Cloudy
8:53 PM 77.0 °F - 55.9 °F 48% 29.99 in 10.0 mi East 9.2 mph - N/A   Overcast
9:53 PM 75.9 °F - 55.0 °F 48% 30.01 in 10.0 mi SE 9.2 mph - N/A   Mostly Cloudy
10:53 PM 73.9 °F - 57.0 °F 55% 30.02 in 10.0 mi SSW 6.9 mph - N/A   Clear
11:53 PM 72.0 °F - 57.9 °F 61% 30.03 in 10.0 mi SW 12.7 mph - N/A   Clear